Location: Pedholt
(56.0260°N, 10.2097°E)
Time: 03:59:28
(UTC+00:00)

SR - Pass Details

Date: 05 August 2021
Orbit: 581 x 874 km, 66.7° (Epoch: 21 September)

Event Time Altitude Azimuth Distance (km) Brightness Sun altitude
Rises 07:16:51 0° 263° (W) 3,372 ? 29.4°
Reaches altitude 10° 07:19:36 10° 272° (W) 2,401 ? 29.8°
Maximum altitude 07:24:35 34° 337° (NNW) 1,267 ? 30.5°
Drops below altitude 10° 07:29:14 10° 42° (NE) 2,232 ? 31.1°
Sets 07:31:44 0° 52° (NE) 3,103 ? 31.4°
